AirNav   ATP
 
 435 users online  

1ME Chesuncook Lake House Seaplane Base
Chesuncook, Maine, USA

GOING TO CHESUNCOOK?


FAA INFORMATION EFFECTIVE 26 APRIL 2018

Location

FAA Identifier: 1ME
Lat/Long: 46-03-39.1500N / 069-24-34.0000W
46-03.652500N / 069-24.566667W
46.0608750 / -69.4094444
(estimated)
Elevation: 942 ft. / 287 m (estimated)
Time zone: UTC -4 (UTC -5 during Standard Time)
Zip code: 04478

Seaplane Base Operations

Seaplane Base use: Open to the public
Activation date: 11/2005
Control tower: no
ARTCC: BOSTON CENTER
FSS: BANGOR FLIGHT SERVICE STATION
NOTAMs facility: BGR (NOTAM-D service available)
Attendance: IREG
UNATNDD IN APRIL.
Segmented circle: no

Seaplane Base Communications

CTAF: 122.9

Seaplane Base Services

Runway Information

Runway ALL/WAY

Dimensions: 15000 x 1100 ft. / 4572 x 335 m
Surface: water, in excellent condition
Operational restrictions: LONGEST LENGTH AVAILABLE NW/SE.
RUNWAY ALL  RUNWAY WAY
Traffic pattern: leftleft

Seaplane Base Ownership and Management from official FAA records

Ownership: Privately-owned
Owner: CHESUNCOOK LAKE HOUSE
HC76 BOX 656 CHESUNCOOK VILLAGE
GREENVILLE, ME 04441
Phone 207-745-5330
Manager: DAVID SURPRENANT
HC 76 BOX 656 CHESUNCOOK VILLAGE
GREENVILLE, ME 04441
Phone 207-745-5330

Seaplane Base Operational Statistics

Aircraft based on the field: 1
Single engine airplanes: 1
    
Aircraft operations: avg 21/month *
80% transient general aviation
20% local general aviation
* for 12-month period ending 12 August 2015

Additional Remarks

FUEL AVBL ONLY IN EMERGENCY.
FOR SVCS CALL 207-745-5330 IN ADV.

Instrument Procedures

There are no published instrument procedures at 1ME.

Some nearby airports with instrument procedures:

52B - Greenville Seaplane Base (36 nm S)
3B1 - Greenville Municipal Airport (36 nm S)
KMLT - Millinocket Municipal Airport (39 nm SE)
KLRG - Lincoln Regional Airport (56 nm SE)
1B0 - Dexter Regional Airport (64 nm S)
 
Loc | Ops | Rwys | IFR | FBO | Links
Com | Nav | Svcs | Stats | Notes

AirNav Hotels Sweepstakes
 
Area around 1ME (Chesuncook Lake House Seaplane Base)
 
Road maps at: MapQuest Bing Google
 
Aerial photo
WARNING: Photo may not be current or correct
Aerial photo of 1ME (Chesuncook Lake House Seaplane Base)
Photo taken 11-Sep-2006

Do you have a better or more recent aerial photo of Chesuncook Lake House Seaplane Base that you would like to share? If so, please send us your photo.

 
Sectional chart

 
Airport distance calculator
Flying to Chesuncook Lake House Seaplane Base? Find the distance to fly.

From to 1ME

Sunrise and sunset
Times for 21-May-2018
 Local
(UTC-4)
 Zulu
(UTC)
Morning civil twilight04:2408:24
Sunrise05:0009:00
Sunset20:0900:09
Evening civil twilight20:4500:45

Current date and time
Zulu (UTC)  21-May-2018 06:08:19
Local (UTC-4)  21-May-2018 02:08:19
 
METAR
K40B 
34nm N 
210516Z AUTO 00000KT 02/01 A2996 RMK AO1 SLP150 T00180014 401800016 52008 P0000
KGNR 
36nm S 
210556Z AUTO 32007KT 08/03 A2998 RMK AO1 SLP156 T00830028 10133 20083 51012
KMLT 
39nm SE 
210553Z AUTO 00000KT 10SM CLR 07/03 A2998 RMK AO2 SLP159 T00670033 10156 20067 53009
TAF
NOTAMs
Click for the latest NOTAMs
NOTAMs are issued by the DoD/FAA and will open in a separate window not controlled by AirNav.

 

 
 

Where to Stay: Hotels, Motels, Resorts, B&Bs, Campgrounds

 The hotels featured here are reported to be very convenient to the Chesuncook Lake House Seaplane Base. If your hotel/inn/B&B/resort is near the Chesuncook Lake House Seaplane Base, provides convenient transportation, or is otherwise attractive to pilots, flight crews, and airport users, consider listing it here.
  
 Business Name 
 
 Contact 
 
 Services / Description 
 
Distance
 
Comments
  
Chesuncook Lake House & Cabins 207-745-5330
[web site]
[email]
Pilots lounge / snooze room, Public telephone, Internet access, Restrooms, Showers, Restaurant, Lodging, Camping on site, Attraction, Residence

More info about Chesuncook Lake House & Cabins
on airport  
   write
Feature A Hotel
 

Would you like to see your business listed on this page?

 If your business provides an interesting product or service to pilots, flight crews, aircraft, or users of the Chesuncook Lake House Seaplane Base, you should consider listing it here.  To start the listing process, click on the button below
 
Add a business
 

Other Pages about Chesuncook Lake House Seaplane Base

Update a link
 
Copyright © AirNav, LLC. All rights reserved. Privacy Policy  Contact